Voltar ao catálogo

ATLAS 5 CENTAUR DEB

LostHEO
NORAD 49353·DEBRIS·🇺🇸 United States

Lançado Oct 17, 2018 de Cape Canaveral Space Force Station

Loading…

Próximas Passagens (próximas 24 horas)

TLE

ObsoletoSource: Space-Track

Época: Apr 22, 2025, 02:25 UTC

1 49353U 18079FE  25112.10117000 -.00000126  00000-0  00000-0 0  9990
2 49353  12.3587  49.7390 5247365 293.9389  20.7244  1.94958974  9957

Acompanhe ATLAS 5 CENTAUR DEB em tempo real com AllMySat

Download on the App Store